Regional Weather Roundup
Issued by NWS

Home | Current Version | Previous Version | Text Only | Print | Product List | Glossary On
Versions: 1 2 3 4 5 6 7 8 9 10 11 12 13 14 15 16 17 18 19 20 21 22 23 24 25 26 27 28 29 30 31 32 33 34 35 36 37 38 39 40 41 42 43 44 45 46 47 48 49 50
778
ASUS43 KMKX 030621
RWRWI

WISCONSIN REGIONAL WEATHER ROUNDUP
NATIONAL WEATHER SERVICE MILWAUKEE/SULLIVAN WI
100 AM CDT TUE MAY 03 2016

NOTE: "FAIR" INDICATES FEW OR NO CLOUDS BELOW 12,000 FEET WITH NO
SIGNIFICANT WEATHER AND/OR OBSTRUCTIONS TO VISIBILITY.

WIZ001-002-006>008-014>016-023>028-030700-
NORTHWEST WISCONSIN

CITY           SKY/WX    TMP DP  RH WIND       PRES   REMARKS
SUPERIOR ARPT  CLEAR     32  32  98 CALM      29.94F
6HR MIN TEMP:  32; 6HR MAX TEMP:  46;

ASHLAND        CLEAR     35  35 100 W5        29.93F WCI  31
6HR MIN TEMP:  35; 6HR MAX TEMP:  63;

HAYWARD        CLEAR     38  32  79 CALM      29.95F
6HR MIN TEMP:  38; 6HR MAX TEMP:  64;

SIREN          CLEAR     47  32  55 SW6       29.96F
6HR MIN TEMP:  44; 6HR MAX TEMP:  64;

CUMBERLAND     CLEAR     41  34  75 CALM      29.97S
RICE LAKE      CLEAR     43  39  85 CALM      29.98F
6HR MIN TEMP:  43; 6HR MAX TEMP:  64;

CHETEK         CLEAR     42  36  78 CALM      29.97S
6HR MIN TEMP:  42; 6HR MAX TEMP:  63;

LADYSMITH      CLEAR     40  36  85 CALM      29.98F
6HR MIN TEMP:  40; 6HR MAX TEMP:  63;

EAU CLAIRE     CLEAR     45  37  73 SW3       29.97F
6HR MIN TEMP:  43; 6HR MAX TEMP:  63;

MENOMONIE      CLEAR     44  36  71 CALM      29.98F
6HR MIN TEMP:  44; 6HR MAX TEMP:  62;

NEW RICHMOND   CLEAR     45  39  80 S3        29.98F
6HR MIN TEMP:  44; 6HR MAX TEMP:  64;

OSCEOLA        CLEAR     43  38  81 CALM      30.00F
6HR MIN TEMP:  43; 6HR MAX TEMP:  65;

$$

WIZ003>005-009-010-017-018-030700-
NORTH CENTRAL WISCONSIN

CITY           SKY/WX    TMP DP  RH WIND       PRES   REMARKS
MANITOWISH WTR CLEAR     33  33 100 CALM      29.94F
6HR MIN TEMP:  33; 6HR MAX TEMP:  59;

ARBOR VITAE    CLEAR     39  34  81 CALM      29.94F
6HR MIN TEMP:  38; 6HR MAX TEMP:  59;

WOODRUFF       CLEAR     39  34  81 CALM      29.94F
6HR MIN TEMP:  38; 6HR MAX TEMP:  59;

RHINELANDER    CLEAR     38  32  79 CALM      29.95F
6HR MIN TEMP:  34; 6HR MAX TEMP:  61;

EAGLE RIVER    CLEAR     33  31  90 CALM      29.93F
LAND O LAKES   CLEAR     32  31  98 CALM      29.94F
6HR MIN TEMP:  32; 6HR MAX TEMP:  60;

PHILLIPS       CLEAR     38  34  87 CALM      29.95F
6HR MIN TEMP:  38; 6HR MAX TEMP:  60;

TOMAHAWK       CLEAR     33  31  91 CALM      29.96F
6HR MIN TEMP:  33; 6HR MAX TEMP:  59;

MEDFORD        CLEAR     48  35  59 SW3       29.96F
6HR MIN TEMP:  44; 6HR MAX TEMP:  59;

MERRILL        CLEAR     37  36  93 CALM      29.97F
$$

WIZ029-030-035-036-043>047-030700-
CENTRAL WISCONSIN

CITY           SKY/WX    TMP DP  RH WIND       PRES   REMARKS
WAUSAU         CLEAR     48  38  68 CALM      29.94F
6HR MIN TEMP:  48; 6HR MAX TEMP:  62;

MOSINEE        CLEAR     48  32  53 SW5       29.97F
MARSHFIELD     CLEAR     49  34  56 W6        29.96F
6HR MIN TEMP:  47; 6HR MAX TEMP:  62;

STEVENS POINT  PTCLDY    39  33  77 CALM      29.97F
6HR MIN TEMP:  39; 6HR MAX TEMP:  61;

WAUPACA        CLEAR     45  35  67 CALM      29.97F
6HR MIN TEMP:  45; 6HR MAX TEMP:  64;

WAUTOMA        CLEAR     40  34  79 CALM      29.98F
6HR MIN TEMP:  39; 6HR MAX TEMP:  62;

WISC RAPIDS    CLEAR     41  33  73 CALM      29.98F
6HR MIN TEMP:  41; 6HR MAX TEMP:  63;

CAMP DOUGLAS   CLEAR     38  38 100 CALM      29.97F
6HR MIN TEMP:  37; 6HR MAX TEMP:  61;

$$

WIZ011>013-019>022-031-037>040-048>050-030700-
NORTHEAST WISCONSIN

CITY           SKY/WX    TMP DP  RH WIND       PRES   REMARKS
ANTIGO         CLEAR     40  36  84 CALM      29.95F
6HR MIN TEMP:  39; 6HR MAX TEMP:  58;

SHAWANO        CLEAR     50  37  59 CALM      29.96F
6HR MIN TEMP:  50; 6HR MAX TEMP:  62;

OCONTO         CLEAR     38  38 100 CALM      29.95F
6HR MIN TEMP:  38; 6HR MAX TEMP:  59;

STURGEON BAY   CLEAR     45  30  57 S5        29.97F
6HR MIN TEMP:  43; 6HR MAX TEMP:  55;

GREEN BAY      CLEAR     44  37  76 CALM      29.96F
6HR MIN TEMP:  43; 6HR MAX TEMP:  60;

MANITOWOC      CLEAR     41  36  82 MISG      29.98F
6HR MIN TEMP:  41; 6HR MAX TEMP:  57;

APPLETON       CLEAR     46  34  61 SW7       29.95F
CLINTONVILLE   CLEAR     46  34  61 SW3       29.96F
OSHKOSH        PTCLDY    46  35  65 S8        29.97F
6HR MIN TEMP:  45; 6HR MAX TEMP:  59;

$$

WIZ032>034-041-042-053>061-030700-
SOUTHWEST WISCONSIN

CITY           SKY/WX    TMP DP  RH WIND       PRES   REMARKS
LA CROSSE      PTCLDY    49  41  74 E5        29.99F
6HR MIN TEMP:  49; 6HR MAX TEMP:  64;

SPARTA         CLEAR     39  37  91 CALM      30.00S
6HR MIN TEMP:  38; 6HR MAX TEMP:  62;

VIROQUA        PTCLDY    51  36  56 W6        30.00S
6HR MIN TEMP:  48; 6HR MAX TEMP:  59;

BOSCOBEL       CLEAR     44  40  85 SW5       30.01S
6HR MIN TEMP:  44; 6HR MAX TEMP:  63;

PRAIRIE DU CHI CLEAR     42  38  86 CALM      30.01S
6HR MIN TEMP:  42; 6HR MAX TEMP:  61;

PLATTEVILLE    CLEAR     48  39  71 W3        30.00F
6HR MIN TEMP:  48; 6HR MAX TEMP:  60;

$$

WIZ056-057-062-063-064-067-068-030700-
SOUTH CENTRAL WISCONSIN

CITY           SKY/WX    TMP DP  RH WIND       PRES   REMARKS
REEDSBURG      PTCLDY    42  39  90 CALM      29.98F
6HR MIN TEMP:  42; 6HR MAX TEMP:  60;

BARABOO/DELLS  PTCLDY    45  34  66 CALM      29.98F
6HR MIN TEMP:  44; 6HR MAX TEMP:  61;

LONE ROCK      PTCLDY    42  40  92 CALM      30.00S
6HR MIN TEMP:  40; 6HR MAX TEMP:  62;

MINERAL POINT  CLEAR     50  36  57 W6        30.00S
MADISON        CLEAR     47  38  71 S6        29.99F
6HR MIN TEMP:  42; 6HR MAX TEMP:  59;

MIDDLETON      CLEAR     39  37  91 CALM      29.99F
6HR MIN TEMP:  39; 6HR MAX TEMP:  61;

WATERTOWN      CLEAR     38  35  90 CALM      29.99F
6HR MIN TEMP:  38; 6HR MAX TEMP:  59;

MONROE         CLEAR     45  36  70 S7        30.00S
JANESVILLE     PTCLDY    41  39  93 CALM      30.00F
$$

WIZ051-052-058>065-066-070>072-030700-
SOUTHEAST WISCONSIN

CITY           SKY/WX    TMP DP  RH WIND       PRES   REMARKS
MILWAUKEE      CLEAR     42  33  70 CALM      29.99F
6HR MIN TEMP:  42; 6HR MAX TEMP:  50;

WAUKESHA       CLEAR     37  32  81 CALM      30.00F
MILWAUKEE/TIMM CLEAR     41  32  70 CALM      30.00F
RACINE         CLEAR     40  33  76 W3        30.01S
6HR MIN TEMP:  39; 6HR MAX TEMP:  51;

BURLINGTON     PTCLDY    36  35  96 CALM      30.00S
6HR MIN TEMP:  36; 6HR MAX TEMP:  56;

KENOSHA        CLEAR     39  35  86 NW3       29.99F
6HR MIN TEMP:  38; 6HR MAX TEMP:  51;

FOND DU LAC    CLEAR     41  34  76 S5        29.98F
6HR MIN TEMP:  41; 6HR MAX TEMP:  60;

SHEBOYGAN      CLEAR     42  35  76 SW3       29.98F
6HR MIN TEMP:  40; 6HR MAX TEMP:  55;

WEST BEND      CLEAR     37  34  87 CALM      29.99F
JUNEAU         CLEAR     44  34  65 S3        30.00F
6HR MIN TEMP:  44; 6HR MAX TEMP:  58;

$$

LSZ147-162-030700-
LAKE SUPERIOR

STATION/POSITION TIME  TEMP    WIND        PRES    WAVE
                       AIR SEA DIR/SP/G            HT/PER
                 (UTC) (F)     (DEG/KT/KT) (MB)    (FT/S)
W MID LAKE BUOY  0550   40 37  260/  4/ 10 1013.2F   0
DEVILS ISLAND    0600   47     230/  8/  8 1013.4F
SAXON HARBOR     0540   39     180/  3/  6 1012.9F
$$

LMZ867-665-643>646-030700-
LAKE MICHIGAN

STATION/POSITION TIME  TEMP    WIND        PRES    WAVE
                       AIR SEA DIR/SP/G            HT/PER
                 (UTC) (F)     (DEG/KT/KT) (MB)    (FT/S)
CHAMBERS ISLAND  0500   42     190/  3C1F1C2F2C3F3C4F4C5F5C6F6C7F7C8M1C9M2Ca!



USA.gov is the U.S. government's official web portal to all federal, state and local government web resources and services.